Location: Proctor
(47.8934°N, 114.3048°W)
Time: 22:28:28
(UTC+00:00)

Vanguard 2 - All Passes

Search period start: 15 June 2024 00:00
Search period end: 25 June 2024 00:00
Orbit: 552 x 2914 km, 32.9° (Epoch: 14 June)

Date Brightness Start Highest point End Pass type
(mag) Time Alt. Az. Time Alt. Az. Time Alt. Az.
15 Jun - 12:31:08 10° SSE 12:38:14 14° SE 12:45:20 10° ESE daylight
15 Jun - 14:33:10 10° SSW 14:47:23 32° SSE 15:00:01 10° E daylight
15 Jun - 16:41:49 10° WSW 16:57:30 43° S 17:09:26 10° ESE daylight
15 Jun - 18:53:15 10° WSW 19:07:06 38° SSW 19:16:43 10° SE daylight
15 Jun - 21:06:48 10° WSW 21:14:55 19° SW 21:21:05 10° S daylight
16 Jun - 12:41:51 10° S 12:51:48 18° SE 13:01:45 10° ESE daylight
16 Jun - 14:46:17 10° SW 15:01:14 36° SSE 15:14:28 10° E daylight
16 Jun - 16:55:38 10° WSW 17:11:29 44° S 17:23:30 10° ESE daylight
16 Jun - 19:07:27 10° W 19:20:56 36° SSW 19:30:25 10° SE daylight
16 Jun - 21:21:59 10° WSW 21:28:25 16° SW 21:33:37 10° SSW daylight
17 Jun - 12:53:43 10° S 13:05:24 23° SE 13:17:09 10° E daylight
17 Jun - 14:59:39 10° SW 15:15:07 40° SSE 15:28:46 10° ESE daylight
17 Jun - 17:09:34 10° WSW 17:25:27 45° S 17:37:29 10° ESE daylight
17 Jun - 19:21:44 10° W 19:34:41 32° SSW 19:43:59 10° SSE daylight
17 Jun - 21:38:14 10° WSW 21:41:50 12° SW 21:45:02 10° SSW daylight
18 Jun - 13:06:11 10° SSW 13:19:02 28° SSE 13:32:03 10° E daylight
18 Jun - 15:13:11 10° SW 15:29:01 43° SSE 15:42:57 10° ESE daylight
18 Jun - 17:23:34 10° WSW 17:39:22 44° S 17:51:24 10° SE daylight
18 Jun - 19:36:09 10° W 19:48:21 29° SSW 19:57:20 10° SSE daylight
19 Jun - 11:18:01 10° SSE 11:24:06 13° SE 11:30:28 10° ESE daylight
19 Jun - 13:19:03 10° SSW 13:32:43 32° SSE 13:46:39 10° E daylight
19 Jun - 15:26:53 10° WSW 15:42:57 45° S 15:57:04 10° ESE daylight
19 Jun - 17:37:39 10° WSW 17:53:16 42° SSW 18:05:12 10° SE daylight
19 Jun - 19:50:44 10° W 20:01:56 24° SW 20:10:27 10° S daylight
20 Jun - 11:28:40 10° S 11:37:30 18° SE 11:47:06 10° ESE daylight
20 Jun - 13:32:13 10° SW 13:46:27 37° SSE 14:01:04 10° E daylight
20 Jun - 15:40:41 10° WSW 15:56:54 47° S 16:11:07 10° ESE daylight
20 Jun - 17:51:48 10° W 18:07:05 40° SSW 18:18:53 10° SE daylight
20 Jun - 20:05:38 10° W 20:15:25 20° SW 20:23:11 10° S daylight
21 Jun - 11:40:33 10° S 11:50:58 22° SE 12:02:34 10° E daylight
21 Jun - 13:45:36 10° SW 14:00:15 40° SSE 14:15:21 10° E daylight
21 Jun - 15:54:36 10° WSW 16:10:50 47° S 16:25:05 10° ESE daylight
21 Jun - 18:06:03 10° W 18:20:50 36° SSW 18:32:26 10° SE daylight
21 Jun - 20:21:03 10° WSW 20:28:48 16° SW 20:35:19 10° SSW daylight
22 Jun - 11:53:03 10° SSW 12:04:29 27° SE 12:17:30 10° E daylight
22 Jun - 13:59:09 10° SW 14:14:06 43° SSE 14:29:32 10° ESE daylight
22 Jun - 16:08:36 10° WSW 16:24:45 46° S 16:38:58 10° ESE daylight
22 Jun - 18:20:24 10° W 18:34:31 32° SSW 18:45:47 10° SSE daylight
22 Jun - 20:37:47 10° WSW 20:42:08 12° SW 20:46:07 10° SSW daylight
23 Jun - 10:07:08 10° SE 10:10:11 11° SE 10:13:24 10° ESE visible
23 Jun - 12:05:57 10° SSW 12:18:03 31° SSE 12:32:07 10° E daylight
23 Jun - 14:12:51 10° SW 14:27:58 46° S 14:43:38 10° ESE daylight
23 Jun - 16:22:39 10° WSW 16:38:38 44° SSW 16:52:45 10° SE daylight
23 Jun - 18:34:55 10° W 18:48:07 28° SW 18:58:53 10° SSE daylight
24 Jun - 10:16:45 10° SSE 10:23:30 15° SE 10:31:10 10° ESE visible
24 Jun - 12:19:09 10° SSW 12:31:42 35° SSE 12:46:33 10° E daylight
24 Jun - 14:26:40 10° WSW 14:41:52 47° S 14:57:40 10° ESE daylight
24 Jun - 16:36:47 10° W 16:52:28 42° SSW 17:06:24 10° SE daylight
24 Jun - 18:49:40 10° W 19:01:37 24° SW 19:11:39 10° S daylight
